Regional Weather Roundup
Issued by NWS

Home | Current Version | Previous Version | Text Only | Print | Product List | Glossary Off
Versions: 1 2 3 4 5 6 7 8 9 10 11 12 13 14 15 16 17 18 19 20 21 22 23 24 25 26 27 28 29 30 31 32 33 34 35 36 37 38 39 40 41 42 43 44 45 46 47 48 49 50

000
ASUS43 KLOT 030703
RWRIL

ILLINOIS REGIONAL WEATHER ROUNDUP
NATIONAL WEATHER SERVICE CHICAGO/ROMEOVILLE IL
100 AM CST SAT DEC 03 2016

NOTE: "FAIR" INDICATES FEW OR NO CLOUDS BELOW 12,000 FEET WITH NO
SIGNIFICANT WEATHER AND/OR OBSTRUCTIONS TO VISIBILITY.

* THESE STATIONS ARE NOT UNDER NWS QUALITY CONTROL. THEY ALSO MAY NOT
  REPORT WEATHER SUCH AS PRECIPITATION OR FOG.

ILZ001-002-007-009-015-016-024-030800-
NORTHWEST ILLINOIS

CITY           SKY/WX    TMP DP  RH WIND       PRES   REMARKS
MOLINE         CLOUDY    34  25  69 W5        30.34R WCI  30
STERLING*      CLOUDY    33  26  75 NW7       30.32F WCI  27
$$

ILZ003-004-008-010-011-017-018-030800-
NORTH CENTRAL ILLINOIS

CITY           SKY/WX    TMP DP  RH WIND       PRES   REMARKS
ROCKFORD       CLOUDY    32  22  66 NW7       30.33S WCI  26
FREEPORT*      CLOUDY    31  24  75 W3        30.33S
ROCHELLE*      CLOUDY    32  26  77 CALM      30.32F
$$

ILZ005-006-012>014-019>023-030800-
NORTHEAST ILLINOIS

CITY           SKY/WX    TMP DP  RH WIND       PRES   REMARKS
CHICAGO-OHARE  CLOUDY    33  24  69 SW3       30.31R
CHICAGO-MIDWAY CLOUDY    35  21  56 VRB5      30.32R WCI  31
AURORA         CLOUDY    33  25  72 N6        30.31F WCI  28
LANSING*       CLOUDY    33  26  74 NW7       30.31F WCI  27
WAUKEGAN       CLOUDY    33  23  66 W3        30.30S
DUPAGE AIRPORT CLOUDY    33  22  63 NW7       30.31R WCI  27
WHEELING       CLOUDY    33  22  63 NW7       30.32S WCI  27
NORTHERLY ISL    N/A     35  23  62 W5          N/A  WCI  31
$$

LMZ740>746-030800-
SOUTHERN LAKE MICHIGAN

STATION/POSITION SKY/WX   TEMP    WIND        PRES    VSBY  WAVE
                          AIR SEA DIR/SP/G                  HT/PER
                          (F)     (DEG/KT/KT) (MB)    (MI)  (FT/S)
SOUTHERN BUOY              36 49  250/  8/ 12 1026.2          2/ 5
HARRISON CRIB              36     310/  8/  9   N/A
BURNHAM HARBOR             35     230/  4/  9   N/A
CALUMET HARBOR             35     260/  4/  8 1026.0
BURNS HARBOR               38     260/  9/ 14 1026.8R
MICHIGAN CITY              37     280/ 13/ 15   N/A
$$

ILZ025>027-034>036-040-047-049-050-058-095>099-030800-
WEST-CENTRAL ILLINOIS

CITY           SKY/WX    TMP DP  RH WIND       PRES   REMARKS
QUINCY         CLOUDY    35  31  85 CALM      30.36R
GALESBURG*     CLOUDY    33  28  80 W3        30.35R
MACOMB*        CLOUDY    35  33  91 CALM      30.38R
JACKSONVILLE*  CLOUDY    34  32  91 CALM      30.37S
PITTSFIELD*    CLOUDY    32  30  92 CALM      30.38S
$$

ILZ028>032-037-038-041>044-048-051>054-059>061-030800-
CENTRAL ILLINOIS

CITY           SKY/WX    TMP DP  RH WIND       PRES   REMARKS
BLOOMINGTON    CLOUDY    34  27  75 CALM      30.34
DECATUR        CLOUDY    38  30  73 N6        30.36R WCI  33
PEORIA         CLOUDY    36  27  69 CALM      30.36R
SPRINGFIELD    NOT AVBL
TAYLORVILLE    CLOUDY    37  34  92 CALM      30.37R
$$

ILZ033-039-045-046-055>057-062-063-030800-
EAST-CENTRAL ILLINOIS

CITY           SKY/WX    TMP DP  RH WIND       PRES   REMARKS
CHAMPAIGN      CLOUDY    37  28  70 NW12      30.35R WCI  29
PARIS*         CLOUDY    37  35  91 NW5       30.35R WCI  34
$$

ILZ079-100>102-030800-
SOUTHWEST ILLINOIS

CITY           SKY/WX    TMP DP  RH WIND       PRES   REMARKS
BELLEVILLE     PTCLDY    30  29  99 CALM      30.36S
SPARTA*        CLOUDY    32  29  90 CALM      30.38R
$$

ILZ064>066-069>071-074>076-080>082-084>086-088>090-092>094-030800-
SOUTH-CENTRAL ILLINOIS

CITY           SKY/WX    TMP DP  RH WIND       PRES   REMARKS
CARBONDALE     NOT AVBL
CAIRO*         PTCLDY    37  32  82 N3        30.36S
MARION         MOCLDY    30  30 100 CALM      30.38S
CENTRALIA*     PTCLDY    31  31  98 CALM      30.36F
SALEM*         CLOUDY    31  29  91 CALM      30.36F FOG
$$

ILZ067-068-072-073-078-083-087-091-030800-
SOUTHEAST ILLINOIS

CITY           SKY/WX    TMP DP  RH WIND       PRES   REMARKS
LAWRENCEVILLE  CLOUDY    39  33  79 CALM      30.37R
HARRISBURG*    PTCLDY    30  29  96 CALM      30.38F
ROBINSON*      CLOUDY    38  33  84 W6        30.38R WCI  33
CARMI*         CLOUDY    29  29 100 CALM      30.38R FOG
$$

ABBREVIATIONS USED IN REMARKS
   TC - TEMPERATURE IN CELSIUS
  WCI - WIND CHILL INDEX
   HX - HEAT INDEX
  VSB - VISIBILITY
$$




USA.gov is the U.S. government's official web portal to all federal, state and local government web resources and services.